User: anonymous   Login
Location: Newark
(60.6561°N, 46.5772°E)
Time: 18:49:19
(UTC+00:00)
Language:

A-11 Canister half - Orbit

View from above orbital plane
View from above orbital plane
View from above satellite
View from above satellite

Ground track
Ground track

The orbit data is extracted from the following two-line orbital elements,

1    53U 60009E   19295.27378964 -.00000028  00000-0  56430-3 0  9997
2    53  47.2752 276.5706 0096722  94.0837 267.1014 12.17229954639435
Epoch (UTC): 22 October 2019 06:34:15
Eccentricity: 0.0096722
inclination: 47.2752°
perigee height: 1527 km
apogee height: 1682 km
right ascension of ascending node: 276.5706°
argument of perigee: 94.0837°
revolutions per day: 12.17229954
mean anomaly at epoch: 267.1014°
orbit number at epoch: 63943

The dashed part of the orbit path shows where the satellite is in the earth's shadow,  

DLR